Change the Weather History Date:

Tuesday, January 14, 2014

  Actual Average (KSPI) Record (KSPI)
Temperature  
Mean Temperature 32 °F 26 °F  
Max Temperature 39 °F 35 °F 67 °F (1928)
Min Temperature 26 °F 18 °F -14 °F (1957)
Degree Days  
Heating Degree Days 32 39  
Month to date heating degree days 535  
Since 1 July heating degree days 2675  
Cooling Degree Days 0 0  
Month to date cooling degree days 0  
Year to date cooling degree days 0  
Moisture  
Dew Point 26 °F    
Average Humidity 81    
Maximum Humidity 100    
Minimum Humidity 60    
Precipitation  
Precipitation 0.01 in 0.06 in 0.82 in (2007)
Month to date precipitation 0.88  
Year to date precipitation 0.88  
Snow  
Snow 0.00 in 0.20 in 3.20 in (1888)
Month to date snowfall 2.9  
Since 1 July snowfall 9.1  
Snow Depth -    
Sea Level Pressure  
Sea Level Pressure 29.86 in    
Wind  
Wind Speed 10 mph (WSW)    
Max Wind Speed 23 mph    
Max Gust Speed 36 mph    
Visibility 10 miles    
Events Rain , Snow    
T = Trace of Precipitation, MM = Missing Value Source: NWS Daily Summary

Daily Weather History Graph

Daily Weather History Graph

Search for Another Location

Airport or City:

Trip Planner

Search our weather history database for the weather conditions in past years. The results will help you decide how hot, cold, wet, or windy it might be!

Date:

Astronomy

Jan. 14, 2014 Rise Set
Actual Time 7:16 AM CST 4:56 PM CST
Civil Twilight 6:46 AM CST 5:26 PM CST
Nautical Twilight 6:13 AM CST 5:59 PM CST
Astronomical Twilight 5:41 AM CST 6:31 PM CST
Moon 4:01 PM CST (1/14) 5:51 AM CST (1/14)
Length of Visible Light 10h 39m
Length of Day
9h 40m
Waxing Gibbous, 98% of the Moon is Illuminated
Jan 14
Waxing Gibbous
Jan 15
Full
Jan 23
Last Quarter
Jan 30
New
Feb 6
First Quarter

Hourly Weather History & Observations

Time (CST) Temp. Windchill Dew Point Humidity Pressure Visibility Wind Dir Wind Speed Gust Speed Precip Events Conditions
12:15 AM 28.4 °F 24.6 °F 28.4 °F 100% 29.85 in 7.0 mi SSW 3.5 mph - N/A   Clear
12:35 AM 28.4 °F 24.6 °F 28.4 °F 100% 29.84 in 7.0 mi South 3.5 mph - N/A   Clear
12:55 AM 28.4 °F 22.2 °F 26.6 °F 93% 29.83 in 7.0 mi South 5.8 mph - N/A   Clear
1:15 AM 28.4 °F 23.3 °F 26.6 °F 93% 29.83 in 7.0 mi South 4.6 mph - N/A   Clear
1:35 AM 28.4 °F 24.6 °F 26.6 °F 93% 29.83 in 7.0 mi South 3.5 mph - N/A   Clear
1:55 AM 26.6 °F 20.0 °F 26.6 °F 100% 29.83 in 7.0 mi South 5.8 mph - N/A   Clear
2:15 AM 28.4 °F 22.2 °F 28.4 °F 100% 29.84 in 7.0 mi SSW 5.8 mph - N/A   Clear
2:35 AM 28.4 °F 22.2 °F 28.4 °F 100% 29.84 in 7.0 mi SSW 5.8 mph - N/A   Clear
2:55 AM 28.4 °F 21.2 °F 28.4 °F 100% 29.83 in 7.0 mi South 6.9 mph - N/A   Clear
3:15 AM 28.4 °F 22.2 °F 28.4 °F 100% 29.81 in 10.0 mi South 5.8 mph - N/A   Clear
3:35 AM 28.4 °F 21.2 °F 26.6 °F 93% 29.80 in 10.0 mi South 6.9 mph - N/A   Clear
3:55 AM 30.2 °F 22.6 °F 28.4 °F 93% 29.80 in 10.0 mi South 8.1 mph - N/A   Clear
4:15 AM 30.2 °F 21.9 °F 28.4 °F 93% 29.79 in 10.0 mi South 9.2 mph - N/A   Clear
4:35 AM 30.2 °F 21.9 °F 28.4 °F 93% 29.78 in 10.0 mi South 9.2 mph - N/A   Clear
4:55 AM 30.2 °F 21.3 °F 28.4 °F 93% 29.78 in 10.0 mi South 10.4 mph - N/A   Clear
5:15 AM 30.2 °F 21.3 °F 28.4 °F 93% 29.77 in 10.0 mi SSE 10.4 mph - N/A   Clear
5:35 AM 32.0 °F 23.0 °F 28.4 °F 87% 29.75 in 10.0 mi SSE 11.5 mph - N/A   Clear
5:55 AM 30.2 °F 21.3 °F 28.4 °F 93% 29.75 in 10.0 mi SSE 10.4 mph - N/A   Clear
6:15 AM 32.0 °F 23.6 °F 28.4 °F 87% 29.74 in 10.0 mi SSE 10.4 mph - N/A   Clear
6:35 AM 32.0 °F 23.0 °F 28.4 °F 87% 29.73 in 10.0 mi South 11.5 mph - N/A   Clear
6:55 AM 32.0 °F 23.0 °F 28.4 °F 87% 29.73 in 10.0 mi South 11.5 mph - N/A   Clear
7:15 AM 32.0 °F 23.0 °F 28.4 °F 87% 29.73 in 10.0 mi South 11.5 mph - N/A   Clear
7:35 AM 32.0 °F 23.6 °F 30.2 °F 93% 29.73 in 10.0 mi South 10.4 mph - N/A   Mostly Cloudy
7:55 AM 32.0 °F 22.1 °F 30.2 °F 93% 29.73 in 10.0 mi South 13.8 mph 20.7 mph N/A   Overcast
8:15 AM 32.0 °F 22.5 °F 30.2 °F 93% 29.73 in 10.0 mi South 12.7 mph - N/A   Overcast
8:35 AM 32.0 °F 22.1 °F 30.2 °F 93% 29.74 in 10.0 mi SSW 13.8 mph - N/A   Overcast
8:55 AM 33.8 °F 25.3 °F 30.2 °F 87% 29.74 in 10.0 mi SSW 11.5 mph - N/A   Overcast
9:15 AM 33.8 °F 24.8 °F 30.2 °F 87% 29.75 in 10.0 mi SSW 12.7 mph - N/A   Overcast
9:35 AM 33.8 °F 24.8 °F 30.2 °F 87% 29.76 in 10.0 mi SW 12.7 mph - N/A   Overcast
9:55 AM 35.6 °F 27.5 °F 30.2 °F 81% 29.76 in 10.0 mi SW 11.5 mph - N/A   Overcast
10:15 AM 37.4 °F 28.9 °F 30.2 °F 75% 29.77 in 10.0 mi WSW 13.8 mph - N/A   Overcast
10:35 AM 35.6 °F 26.2 °F 30.2 °F 81% 29.78 in 10.0 mi WSW 15.0 mph 19.6 mph N/A   Overcast
10:55 AM 35.6 °F 27.1 °F 32.0 °F 87% 29.79 in 10.0 mi West 12.7 mph - N/A   Light Drizzle
11:15 AM 35.6 °F 26.6 °F 32.0 °F 87% 29.80 in 7.0 mi West 13.8 mph 18.4 mph N/A Rain Rain
11:35 AM 33.8 °F 25.3 °F 32.0 °F 93% 29.80 in 7.0 mi West 11.5 mph 19.6 mph N/A Rain Light Rain
11:55 AM 35.6 °F 26.6 °F 33.8 °F 93% 29.79 in 10.0 mi West 13.8 mph 19.6 mph N/A   Overcast
12:15 PM 35.6 °F 26.2 °F 33.8 °F 93% 29.79 in 10.0 mi WNW 15.0 mph 23.0 mph N/A   Overcast
12:35 PM 37.4 °F 28.2 °F 33.8 °F 87% 29.79 in 10.0 mi West 16.1 mph 24.2 mph N/A   Mostly Cloudy
12:55 PM 39.2 °F 28.7 °F 32.0 °F 75% 29.79 in 10.0 mi West 23.0 mph - N/A   Overcast
1:15 PM 37.4 °F 26.6 °F 30.2 °F 75% 29.81 in 10.0 mi WNW 21.9 mph 34.5 mph N/A   Scattered Clouds
1:35 PM 39.2 °F 29.6 °F 30.2 °F 70% 29.81 in 10.0 mi West 19.6 mph 29.9 mph N/A   Scattered Clouds
1:55 PM 37.4 °F 28.2 °F 28.4 °F 70% 29.83 in 10.0 mi WNW 16.1 mph 28.8 mph N/A   Scattered Clouds
2:15 PM 37.4 °F 26.4 °F 28.4 °F 70% 29.84 in 10.0 mi WNW 23.0 mph 32.2 mph N/A   Clear
2:35 PM 37.4 °F 27.2 °F 30.2 °F 75% 29.85 in 10.0 mi WNW 19.6 mph 25.3 mph N/A   Mostly Cloudy
2:55 PM 35.6 °F 25.5 °F 28.4 °F 75% 29.87 in 10.0 mi WNW 17.3 mph 27.6 mph N/A   Overcast
3:15 PM 35.6 °F 24.8 °F 28.4 °F 75% 29.89 in 10.0 mi WNW 19.6 mph 25.3 mph N/A   Overcast
3:35 PM 35.6 °F 24.8 °F 28.4 °F 75% 29.90 in 10.0 mi WNW 19.6 mph 25.3 mph N/A   Overcast
3:55 PM 33.8 °F 23.2 °F 26.6 °F 75% 29.92 in 10.0 mi WNW 17.3 mph 25.3 mph N/A   Mostly Cloudy
4:15 PM 33.8 °F 21.9 °F 24.8 °F 70% 29.94 in 10.0 mi WNW 21.9 mph 34.5 mph N/A   Mostly Cloudy
4:35 PM 32.0 °F 21.2 °F 23.0 °F 69% 29.95 in 10.0 mi WNW 16.1 mph 25.3 mph N/A   Scattered Clouds
4:55 PM 32.0 °F 23.6 °F 23.0 °F 69% 29.95 in 10.0 mi WNW 10.4 mph 20.7 mph N/A   Clear
5:15 PM 32.0 °F 24.8 °F 23.0 °F 69% 29.95 in 10.0 mi West 8.1 mph - N/A   Scattered Clouds
5:35 PM 32.0 °F 25.6 °F 23.0 °F 69% 29.96 in 10.0 mi WNW 6.9 mph - N/A   Overcast
5:55 PM 32.0 °F 24.8 °F 24.8 °F 75% 29.97 in 10.0 mi WNW 8.1 mph - N/A   Overcast
6:15 PM 32.0 °F 21.6 °F 23.0 °F 69% 29.98 in 10.0 mi WNW 15.0 mph 21.9 mph N/A   Overcast
6:35 PM 32.0 °F 20.8 °F 23.0 °F 69% 29.99 in 10.0 mi WNW 17.3 mph 26.5 mph N/A   Overcast
6:55 PM 32.0 °F 20.1 °F 23.0 °F 69% 30.00 in 10.0 mi WNW 19.6 mph 28.8 mph N/A   Overcast
7:15 PM 30.2 °F 17.1 °F 23.0 °F 75% 30.01 in 10.0 mi WNW 21.9 mph 27.6 mph N/A   Overcast
7:35 PM 30.2 °F 18.1 °F 21.2 °F 69% 30.01 in 10.0 mi WNW 18.4 mph 35.7 mph N/A   Mostly Cloudy
7:55 PM 30.2 °F 17.8 °F 17.6 °F 60% 30.01 in 10.0 mi WNW 19.6 mph 28.8 mph N/A   Mostly Cloudy
8:15 PM 30.2 °F 19.8 °F 17.6 °F 60% 30.01 in 10.0 mi West 13.8 mph 25.3 mph N/A   Mostly Cloudy
8:35 PM 30.2 °F 18.9 °F 17.6 °F 60% 30.01 in 10.0 mi West 16.1 mph 21.9 mph N/A   Mostly Cloudy
8:55 PM 30.2 °F 18.9 °F 17.6 °F 60% 30.01 in 10.0 mi West 16.1 mph 25.3 mph N/A   Overcast
9:15 PM 30.2 °F 18.5 °F 17.6 °F 60% 30.01 in 10.0 mi West 17.3 mph 24.2 mph 0.01 in   Overcast
9:35 PM 30.2 °F 17.8 °F 17.6 °F 60% 30.01 in 10.0 mi West 19.6 mph 27.6 mph 0.01 in   Overcast
9:55 PM 28.4 °F 15.8 °F 19.4 °F 69% 30.02 in 10.0 mi WNW 18.4 mph 24.2 mph 0.01 in Snow Light Snow
10:15 PM 28.4 °F 14.4 °F 17.6 °F 64% 30.02 in 10.0 mi WNW 23.0 mph 33.4 mph N/A   Overcast
10:35 PM 28.4 °F 16.6 °F 17.6 °F 64% 30.02 in 10.0 mi NW 16.1 mph 26.5 mph N/A   Overcast
10:55 PM 28.4 °F 17.5 °F 17.6 °F 64% 30.02 in 10.0 mi WNW 13.8 mph 27.6 mph N/A   Mostly Cloudy
11:15 PM 26.6 °F 14.7 °F 17.6 °F 69% 30.03 in 10.0 mi NW 15.0 mph 20.7 mph N/A   Mostly Cloudy
11:35 PM 26.6 °F 14.3 °F 17.6 °F 69% 30.03 in 10.0 mi WNW 16.1 mph 24.2 mph N/A   Overcast
11:55 PM 26.6 °F 15.7 °F 17.6 °F 69% 30.03 in 10.0 mi WNW 12.7 mph - N/A   Scattered Clouds